"Pseudo-MPEC" for MRO = Mars Reconnaissance Orbiter

Created Fri May 3 10:47:52 2013 using Find_Orb

Astrometry:
MRO           C2005 08 13.01932 01 35 38.50 +39 34 03.2          14.3 V D0038J77
MRO           C2005 08 13.02190 01 35 40.80 +39 34 38.4          14.9 V D0038J77
MRO           C2005 08 13.02447 01 35 43.04 +39 35 11.3          14.8 V D0038J77
MRO           C2005 08 13.02741 01 35 45.38 +39 35 48.3          14.5 V D0038J77
MRO           C2005 08 13.03031 01 35 47.67 +39 36 24.0          14.7 V D0038J77
MRO           C2005 08 13.03320 01 35 49.81 +39 36 59.1          14.7 V D0038J77
MRO           C2005 08 13.04544 01 36 25.817+39 58 55.42         14.2 R D0034620
MRO           C2005 08 13.04573 01 36 25.834+39 58 58.34         14.2 R D0034620
MRO           C2005 08 13.04598 01 36 25.845+39 59 00.97         14.2 R D0034620
MRO           C2005 08 13.04624 01 36 25.872+39 59 03.62         14.1 R D0034620
MRO           C2005 08 13.04649 01 36 25.874+39 59 06.08         14.2 R D0034620
MRO           C2005 08 13.04675 01 36 25.885+39 59 08.68         14.2 R D0034620
MRO           C2005 08 13.04701 01 36 25.905+39 59 11.12         14.2 R D0034620
MRO           C2005 08 13.04727 01 36 25.923+39 59 13.88         14.2 R D0034620
MRO           C2005 08 13.04752 01 36 25.942+39 59 16.48         14.1 R D0034620
MRO           C2005 08 13.04778 01 36 25.956+39 59 18.92         14.2 R D0034620
MRO           C2005 08 14.08970 01 47 13.67 +39 38 30.0                 D0035557
MRO           C2005 08 14.09219 01 47 12.59 +39 38 32.9                 D0035557
MRO           C2005 08 14.09302 01 47 12.22 +39 38 34.1                 D0035557
MRO           C2005 08 14.09385 01 47 11.86 +39 38 35.0                 D0035557
MRO           C2005 08 14.09469 01 47 11.50 +39 38 36.0                 D0035557
MRO           C2005 08 14.09552 01 47 11.14 +39 38 36.6                 D0035557
MRO           C2005 08 14.09802 01 47 10.02 +39 38 39.5                 D0035557
MRO           C2005 08 14.09884 01 47 09.66 +39 38 40.5                 D0035557
MRO           C2005 08 14.09968 01 47 09.31 +39 38 41.1                 D0035557
MRO           C2005 08 14.10134 01 47 08.55 +39 38 42.1                 D0035557
MRO           C2005 08 14.10219 01 47 08.20 +39 38 43.1                 D0035557
MRO           C2005 08 14.10301 01 47 07.83 +39 38 43.7                 D0035557
MRO           C2005 08 14.10384 01 47 07.48 +39 38 44.3                 D0035557
MRO           C2005 08 14.10466 01 47 07.09 +39 38 45.0                 D0035557
MRO           C2005 08 14.93458 01 50 52.54 +39 24 57.2                 D0036J95
MRO           C2005 08 14.94027 01 50 53.08 +39 25 17.5                 D0036J95
MRO           C2005 08 14.94607 01 50 53.53 +39 25 38.3          17.6 R D0036J95
MRO           C2005 08 15.29654 01 50 21.44 +39 55 36.5          17.3 R      I77
MRO           C2005 08 15.30078 01 50 19.17 +39 55 34.6          17.4 R      I77
MRO           C2005 08 15.30925 01 50 14.60 +39 55 26.8          17.7 R      I77

Station data:
(557) Ondrejov (N49.9109 E14.7837).   Observer P. Kušnirák.  0.65-m f/3.6
    reflector + CCD.
(620) Observatorio Astronomico de Mallorca (N39.6440 E2.9517).   Observers S.
    Sanchez, R. Stoss, J. Nomen.  0.30-m f/9 Schmidt-Cassegrain + CCD.
(I77) CEAMIG-REA Observatory, Belo Horizonte (S19.8304 W43.9975).   Observers
    C. Jacques, E. Pimentel.  Measurer C. Jacques.  0.30-m f/3.0
    Schmidt-Cassegrain + CCD.
(J77) Golden Hill Observatory, Stourton Caundle (N50.9310 W2.4053).   Observer
    R. Miles.  0.28-m f/10 Schmidt-Cassegrain + CCD.
(J95) Great Shefford (N51.47502 W1.44700).   Observer P. Birtwhistle.  0.40-m
    f/6.0 Schmidt-Cassegrain + CCD.

Orbital elements (Earth departure):   MRO = Mars Reconnaissance Orbiter
   Perigee 2005 Aug 12.525526 +/- 0.000125 TT = 12:36:45 (JD 2453595.025526)
Epoch 2005 Aug 14.0 TT = JDT 2453596.5                        Find_Orb
q  6618.4602 +/- 3.29
H   26.1  G 0.15                    Peri.  321.5303 +/- 0.013
                                    Node   281.4162 +/- 0.0017
e   1.270949 +/- 0.000232           Incl.   40.7669 +/- 0.0012
From 36 observations 2005 Aug. 13-15; mean residual 0".299.

Orbital elements (mid-flight):  MRO = Mars Reconnaissance Orbiter
   Perihelion 2005 Aug 10.525608 +/- 0.000489 TT = 12:36:52 (JD 2453593.025608)
Epoch 2005 Dec  1.0 TT = JDT 2453705.5   Earth MOID: 0.0001   Ma: 0.0008
M  70.9786 +/- 0.008                                          Find_Orb
n   0.6310649 +/- 7.77e-5           Peri.  358.3318 +/- 0.0008
a   1.3461290 +/- 0.00011           Node   319.3819 +/- 0.00028
e   0.247169 +/- 6.19e-5            Incl.    3.0490 +/- 0.0006
P   1.56/570.45d   H   26.1     G   0.15     U  6.4
q 1.0134066 +/- 1.97e-7    Q 1.6788514 +/- 0.00022
From 36 observations 2005 Aug. 13-15; mean residual 0".299.

Orbital elements (Mars approach):  MRO = Mars Reconnaissance Orbiter
   Perimars 2006 Mar 11.357017 +/- 0.156 TT =  8:34:06 (JD 2453805.857017)
Epoch 2006 Mar 11.0 TT = JDT 2453805.5                        Find_Orb
q101558.59 +/- 23605
H   26.1  G 0.15                    Peri.  243.8379 +/- 1.3
                                    Node    67.7587 +/- 2.1
e  19.668360 +/- 3.58               Incl.   70.3913 +/- 0.26
From 36 observations 2005 Aug. 13-15; mean residual 0".299.


Residuals in arcseconds:
050813 J77 .233+ .212+    050813 620 .133- .278-    050814 557 .281+ .088-
050813 J77 .131+ 1.12+    050813 620 .067- .107-    050814 557 .024- .549-
050813 J77 .516+ .534+    050813 620 .023+ .012+    050814 557 .279+ .259-
050813 J77 .328- .035+    050813 620 .059+ .121-    050814 557 .202+ .320-
050813 J77 .054- .404-    050814 557 .163+ .344-    050814 557 .411+ .365-
050813 J77 .156- .480-    050814 557 .198+ .480-    050814 557 .111+ .278-
050813 620 .113- .177-    050814 557 .108+ .243-    050814 J95 .045+ .128+
050813 620 .131- .198-    050814 557 .140+ .282-    050814 J95 .012+ .086-
050813 620 .180- .095-    050814 557 .228+ .207-    050814 J95 .023+ .071-
050813 620 .045- .065-    050814 557 .272+ .497-    050815 I77 .400- .414+
050813 620 .182- .117-    050814 557 .028+ .129-    050815 I77 .116- 1.01+
050813 620 .213- .122-    050814 557 .043+ .089+    050815 I77 .228- .194-

Ephemerides:
Date (UT)    RA              Dec         delta   r     elong  mag
---- -- --  ------------   ------------  ------ ------ -----  ---
2005 08 13  01 30 04.888   +40 13 24.25  209676 1.0135 101.9 14.5
2005 08 14  01 46 08.416   +39 46 22.82  580653 1.0137 100.4 16.8
2005 08 15  01 49 43.950   +39 38 51.57  940755 1.0140 100.7 17.8
2005 08 16  01 51 20.727   +39 35 08.53  .00867 1.0143 101.3 18.5
2005 08 17  01 52 15.970   +39 32 49.79  .01104 1.0148 102.0 19.0
2005 08 18  01 52 51.522   +39 31 11.54  .01340 1.0153 102.8 19.4
2005 08 19  01 53 15.836   +39 29 55.30  .01575 1.0158 103.6 19.7
2005 08 20  01 53 32.760   +39 28 51.22  .01810 1.0165 104.4 20.0
2005 08 21  01 53 44.205   +39 27 52.87  .02044 1.0172 105.2 20.2
2005 08 22  01 53 51.169   +39 26 55.36  .02277 1.0180 106.1 20.4
2005 08 23  01 53 54.194   +39 25 54.64  .02509 1.0188 106.9 20.6
2005 08 24  01 53 53.589   +39 24 47.20  .02740 1.0197 107.8 20.8
2005 08 25  01 53 49.550   +39 23 30.04  .02971 1.0207 108.7 20.9
2005 08 26  01 53 42.214   +39 22 00.54  .03201 1.0217 109.6 21.0
2005 08 27  01 53 31.693   +39 20 16.49  .03430 1.0229 110.5 21.2
2005 08 28  01 53 18.083   +39 18 15.98  .03658 1.0240 111.4 21.3
2005 08 29  01 53 01.477   +39 15 57.38  .03885 1.0253 112.3 21.4
2005 08 30  01 52 41.963   +39 13 19.27  .04112 1.0266 113.2 21.5
2005 08 31  01 52 19.628   +39 10 20.43  .04338 1.0280 114.2 21.6
2005 09 01  01 51 54.563   +39 06 59.77  .04563 1.0294 115.1 21.6
2005 09 02  01 51 26.861   +39 03 16.35  .04788 1.0309 116.1 21.7
2005 09 03  01 50 56.618   +38 59 09.36  .05013 1.0325 117.0 21.8
2005 09 04  01 50 23.937   +38 54 38.11  .05236 1.0341 118.0 21.9
2005 09 05  01 49 48.927   +38 49 42.03  .05460 1.0358 119.0 21.9
2005 09 06  01 49 11.701   +38 44 20.68  .05683 1.0376 120.0 22.0
2005 09 07  01 48 32.376   +38 38 33.71  .05907 1.0394 121.0 22.0
2005 09 08  01 47 51.074   +38 32 20.92  .06130 1.0413 122.0 22.1
2005 09 09  01 47 07.915   +38 25 42.19  .06353 1.0432 123.0 22.1
2005 09 10  01 46 23.021   +38 18 37.48  .06576 1.0452 124.0 22.2
2005 09 11  01 45 36.510   +38 11 06.86  .06800 1.0473 125.1 22.2
2005 09 12  01 44 48.492   +38 03 10.45  .07023 1.0494 126.1 22.3
2005 09 13  01 43 59.070   +37 54 48.39  .07248 1.0515 127.1 22.3
2005 09 14  01 43 08.332   +37 46 00.84  .07472 1.0537 128.2 22.4
2005 09 15  01 42 16.352   +37 36 47.93  .07698 1.0560 129.2 22.4
2005 09 16  01 41 23.186   +37 27 09.68  .07924 1.0583 130.3 22.4
2005 09 17  01 40 28.873   +37 17 05.99  .08150 1.0607 131.3 22.5
2005 09 18  01 39 33.439   +37 06 36.64  .08378 1.0631 132.4 22.5
2005 09 19  01 38 36.908   +36 55 41.25  .08607 1.0655 133.4 22.5
2005 09 20  01 37 39.306   +36 44 19.36  .08837 1.0681 134.5 22.6
2005 09 21  01 36 40.672   +36 32 30.49  .09068 1.0706 135.6 22.6